Probability
9 12 17 22 27 30 31 30 29 27 23 19 17 15 12 10 9 8 7 7 9 10 9 6 4 4 3 2 1 1 1 0 0 0 0 0 0 1 2 2 2 1 2
11 13 16 21 27 31 31 31 28 25 24 23 19 15 12 11 9 8 7 7 8 9 8 6 5 4 4 3 2 2 2 1 0 0 0 0 0 0 1 1 1 1 2
12 13 14 19 27 32 33 31 27 24 25 25 21 17 14 12 10 8 8 8 8 9 9 7 6 5 5 4 3 3 3 1 1 0 0 0 0 0 1 1 0 0 1
10 12 13 18 28 34 34 32 28 25 24 25 23 19 16 14 12 10 9 8 7 8 9 8 6 6 5 4 3 3 3 3 2 1 1 0 0 0 1 2 1 0 0
9 10 13 18 26 33 33 30 27 25 24 24 23 20 18 14 12 12 11 8 7 8 8 7 5 4 5 4 3 3 3 3 3 2 1 0 0 0 1 2 1 0 0
9 11 14 19 25 31 31 27 24 23 24 24 23 22 19 14 13 13 12 9 6 6 6 5 4 3 4 3 3 3 2 2 3 3 2 1 0 0 0 1 1 0 0
12 14 16 18 24 29 28 25 22 22 22 24 24 24 21 17 14 13 10 8 7 5 4 4 4 3 3 3 3 2 1 1 2 3 2 1 0 0 0 0 0 0 0
13 14 14 16 21 24 24 22 21 20 21 21 22 22 21 18 15 10 8 7 7 6 5 5 4 3 2 2 2 1 1 1 2 1 1 1 1 1 1 1 0 0 0
11 10 11 13 15 16 17 18 19 19 19 18 17 18 19 17 12 8 7 7 7 6 6 6 4 2 1 1 1 0 0 1 1 0 0 1 1 2 2 2 1 1 1
8 7 7 8 9 10 13 15 16 17 16 15 13 13 15 14 11 8 6 6 5 4 5 5 4 2 1 0 0 0 0 0 0 0 0 1 2 3 3 3 3 2 2
7 7 7 6 6 8 9 11 12 12 12 10 9 8 9 11 10 8 6 5 4 3 3 4 4 3 2 1 1 0 0 0 0 0 0 1 1 2 2 3 3 3 3
6 7 9 9 8 7 6 6 7 7 6 6 6 5 6 7 7 6 5 4 3 3 3 3 4 3 3 3 2 1 1 1 1 0 0 0 0 1 1 1 3 3 3
6 7 9 11 11 8 6 4 4 4 4 4 4 3 4 5 5 4 4 3 3 3 3 3 3 3 3 3 3 3 2 2 2 1 1 0 0 0 0 1 2 3 3
5 5 6 9 10 8 5 4 3 2 3 3 3 3 3 4 4 3 3 2 1 1 2 3 3 4 3 3 3 3 3 3 3 3 2 1 0 0 0 0 1 2 2
4 4 4 5 6 5 4 3 2 1 1 2 3 3 3 3 3 3 3 1 0 0 1 2 4 5 4 3 3 3 3 3 3 3 3 2 1 0 0 0 0 1 1
4 3 3 3 4 3 2 3 2 1 0 1 2 3 3 3 3 3 2 1 1 1 1 1 3 5 5 3 3 3 3 3 3 4 5 4 1 0 0 0 0 0 0
3 3 3 3 3 2 2 3 3 2 1 0 1 3 3 3 3 3 2 1 1 1 1 1 2 3 4 3 1 1 3 3 3 4 5 5 3 1 0 0 0 0 0
3 3 4 3 3 1 1 3 3 3 2 1 1 2 3 3 3 2 1 0 1 1 0 0 1 2 3 2 1 1 2 3 3 4 6 6 4 1 0 0 0 0 0
3 4 4 3 2 1 1 2 2 2 2 1 1 2 3 3 2 1 0 0 0 0 0 0 0 1 2 2 1 1 2 3 3 4 5 5 4 1 0 0 0 0 0
4 4 4 3 1 0 0 1 1 1 1 0 1 2 3 3 2 1 0 0 0 0 0 0 0 0 1 1 1 1 2 3 3 3 3 3 1 0 0 0 0 0 0
6 5 4 2 1 0 0 0 0 0 0 0 1 3 3 3 2 2 1 1 0 0 0 0 0 0 0 0 0 1 2 3 3 3 3 2 1 0 0 0 0 0 0
6 5 3 1 0 0 0 0 0 0 0 1 2 3 3 3 3 3 2 1 0 0 0 0 0 0 0 0 0 0 1 2 3 3 3 2 1 0 0 0 0 0 0
7 5 3 1 1 1 0 0 0 0 0 1 2 3 3 3 3 3 1 0 0 0 0 0 0 0 0 1 1 1 0 1 2 3 3 2 1 0 0 0 0 0 0
8 6 3 2 2 2 1 1 0 0 0 1 2 3 3 3 3 2 1 0 0 0 0 0 0 0 0 1 2 2 1 0 1 2 1 1 0 0 0 0 0 0 0
7 5 3 3 3 3 2 1 0 0 0 1 3 3 3 2 1 1 0 0 0 0 0 0 0 0 0 1 2 2 1 0 0 0 0 0 0 0 0 0 0 0 0
6 4 3 3 3 3 3 1 0 0 1 2 3 3 3 1 0 0 0 0 0 0 0 0 0 0 0 0 1 1 0 0 0 0 0 0 0 0 0 0 0 0 0
Wind_Speed
8 8 8 8 8 7 7 7 7 5 4 3 3 2 2 1 1 1 2 2 2 2 2 1 1 1 1 1 1 1 1 1 1 2 2 2 2 1 0 0 1 1 2
4 5 7 8 8 9 8 8 7 6 5 4 3 3 3 2 2 1 1 2 2 2 2 2 1 1 1 1 1 1 1 0 1 2 1 2 3 3 2 1 0 1 0
8 6 6 7 8 8 8 8 7 6 5 5 3 3 2 2 2 1 0 1 1 2 2 2 2 1 2 2 2 2 2 1 1 1 3 2 2 2 2 1 0 0 1
6 6 6 7 8 8 8 7 7 6 5 5 5 5 4 2 2 1 1 0 0 1 1 1 2 2 1 1 2 2 1 2 1 1 1 2 3 2 1 2 2 1 1
6 6 6 7 6 6 7 7 6 5 5 5 5 5 3 2 1 1 1 1 0 0 1 1 1 1 1 1 1 1 1 2 2 2 1 1 1 2 2 1 2 2 1
5 6 5 6 6 6 5 5 5 4 4 5 5 5 5 3 3 2 2 1 1 1 1 0 0 1 1 1 1 2 2 2 2 2 2 2 2 2 2 2 2 2 2
6 7 7 6 5 5 5 5 6 4 3 4 4 4 5 5 5 4 3 2 1 1 2 1 1 1 1 2 2 1 1 2 2 2 2 2 2 2 3 2 1 1 1
6 7 6 6 5 5 5 5 5 4 3 3 3 3 3 3 2 3 2 2 2 2 2 1 1 2 2 2 2 2 2 2 2 3 2 2 2 2 3 3 3 0 1
6 6 6 5 5 5 4 5 5 4 3 2 2 2 2 2 2 2 2 1 1 1 1 1 2 2 2 2 2 2 3 2 2 2 2 2 2 2 2 2 3 4 2
5 5 5 5 4 4 4 4 5 4 3 3 2 2 2 2 3 2 2 2 1 1 1 1 2 2 1 2 2 2 2 2 2 2 2 2 2 1 2 2 2 3 3
6 5 5 4 4 4 3 4 4 4 3 3 2 2 1 2 2 2 2 2 1 1 1 1 2 2 2 2 2 2 2 2 2 2 2 2 2 1 1 1 1 2 2
5 5 5 5 4 4 4 4 3 3 2 2 1 1 1 2 2 1 1 1 1 1 1 1 1 2 2 1 2 3 2 2 2 2 2 2 2 1 1 1 2 1 2
5 4 5 4 4 4 4 4 3 3 2 2 2 1 1 1 1 1 1 1 1 1 2 2 2 2 2 2 2 2 2 2 2 2 3 3 2 2 2 2 2 1 1
5 5 4 3 3 4 4 3 3 2 2 1 1 1 1 1 1 2 1 1 1 2 2 2 2 2 2 2 2 2 2 2 2 2 3 3 3 3 3 2 2 2 2
5 4 4 3 3 4 3 3 2 1 1 1 1 1 1 1 0 0 1 1 1 2 2 2 2 2 1 2 2 2 2 2 2 2 2 3 3 4 3 3 3 3 2
5 5 4 4 4 4 4 3 2 1 2 1 1 1 0 1 0 1 1 1 1 2 2 2 2 2 2 2 3 3 2 2 2 2 2 2 2 3 3 4 4 5 5
5 5 4 4 4 5 5 4 3 2 1 1 1 1 0 1 1 2 1 1 2 2 2 3 3 3 3 3 2 3 2 2 2 2 1 1 1 2 2 2 2 3 5
5 4 4 4 4 3 4 4 3 2 1 1 1 1 1 1 2 1 2 2 2 2 2 3 3 2 3 3 2 2 2 1 2 2 3 3 2 2 2 2 2 1 2
5 4 4 4 4 4 4 4 3 3 2 1 2 2 1 1 2 2 3 2 2 2 2 2 2 3 3 3 2 2 2 2 2 3 3 3 3 3 4 4 3 1 1
3 3 3 3 4 4 4 4 3 3 3 3 3 2 2 2 3 3 3 2 2 3 3 2 2 3 3 3 3 3 2 2 2 1 2 3 4 5 5 5 4 3 2
3 3 4 4 4 4 4 4 3 3 4 3 2 2 2 2 3 3 2 2 2 2 2 2 2 2 3 3 3 4 2 3 2 2 2 2 4 5 6 6 4 5 4
3 4 4 3 3 4 5 4 4 4 3 3 2 2 2 3 2 2 2 2 1 1 2 2 2 2 2 3 3 4 5 4 3 3 3 3 4 5 6 5 5 5 3
3 3 4 3 2 3 5 5 4 3 3 2 2 2 2 2 2 2 2 2 1 1 2 2 2 2 2 2 4 4 4 4 3 3 4 4 4 4 3 5 5 4 3
3 3 4 3 2 2 3 4 3 3 3 3 2 2 2 2 2 2 2 2 2 2 2 2 2 2 2 2 1 1 2 2 2 1 2 3 3 2 2 2 2 2 3
2 3 4 3 2 2 2 2 2 3 3 3 3 2 2 2 2 2 2 3 3 4 4 3 3 2 3 4 4 3 3 3 3 2 1 1 1 0 0 1 1 1 2
2 3 2 3 2 2 2 1 1 2 3 2 3 3 2 2 2 1 2 3 3 4 5 6 5 4 6 6 5 5 4 4 5 4 2 2 2 2 2 2 1 1 2
Wind_Direction
189 175 170 161 153 149 149 150 148 148 142 136 142 140 161 167 156 159 152 146 130 129 128 125 135 130 138 151 144 119 91 46 65 70 24 359 357 2 257 228 180 209 214
163 170 168 163 164 163 155 151 153 155 158 162 164 159 152 157 161 153 134 141 132 137 137 137 157 157 149 125 132 121 110 185 104 113 88 5 350 343 345 345 168 199 183
170 165 163 168 163 163 162 159 159 160 158 144 122 107 77 57 55 89 151 199 155 148 143 163 167 164 160 182 196 169 151 176 248 142 139 145 212 304 326 320 351 182 178
154 157 149 152 168 169 158 153 152 150 150 140 136 142 146 154 185 179 170 155 115 116 137 160 166 163 166 185 211 188 179 157 192 260 182 172 163 156 301 323 313 264 205
148 149 147 146 150 150 150 150 148 146 145 142 141 144 144 155 143 123 112 137 203 190 183 152 149 159 170 192 217 197 200 179 179 187 183 144 110 136 155 239 298 317 281
128 118 111 117 122 128 127 130 133 140 150 145 140 148 151 149 141 148 166 197 232 264 274 149 158 199 186 194 213 213 212 208 194 190 178 168 166 184 170 189 233 264 278
119 112 110 115 122 132 135 137 131 139 150 146 154 160 158 158 166 175 182 185 201 241 253 225 221 234 230 214 200 204 231 218 205 200 200 191 189 174 165 160 193 251 291
115 116 119 121 124 127 130 134 133 140 139 148 162 158 153 154 164 166 160 177 207 224 233 228 235 246 248 241 216 218 226 226 222 217 198 191 200 180 167 165 157 152 315
117 112 109 115 120 126 131 139 133 123 121 129 134 130 146 145 150 144 142 166 221 240 238 249 249 250 247 244 231 233 232 223 221 222 206 200 208 196 188 171 163 164 195
122 112 105 108 117 126 123 121 126 128 118 114 125 137 156 160 156 152 161 175 221 239 215 240 260 263 259 254 241 245 244 219 226 216 204 213 210 196 190 179 177 171 174
137 128 123 123 117 103 97 102 108 105 100 100 98 105 130 143 151 164 176 182 200 211 215 226 239 247 246 249 238 238 231 226 234 231 205 219 204 190 189 167 170 172 162
126 127 126 118 118 116 112 104 105 104 107 104 103 132 144 130 141 175 202 196 198 212 220 222 228 246 258 250 237 241 235 223 225 224 201 217 200 188 181 168 180 178 174
121 115 118 122 136 135 128 126 127 128 126 131 135 127 132 145 186 203 207 206 206 228 234 220 223 243 257 251 246 234 227 218 220 214 205 210 184 194 186 180 180 184 169
135 132 130 134 146 138 136 138 138 143 142 129 125 157 201 201 216 216 211 204 204 217 229 231 235 235 242 249 250 240 228 221 222 220 213 205 191 191 185 184 178 168 159
143 146 150 151 151 140 137 135 141 145 132 120 131 223 244 242 245 251 238 210 207 230 229 221 234 244 241 247 235 231 227 214 220 229 221 211 191 187 188 184 175 167 166
168 165 162 158 163 158 153 142 138 137 127 144 198 229 329 359 326 277 267 245 244 257 254 242 235 242 257 268 234 214 219 213 214 222 223 212 189 183 181 181 179 179 177
173 170 172 173 174 171 162 161 162 143 133 170 219 235 254 331 298 279 271 256 256 256 259 256 242 245 265 274 245 215 206 204 205 203 206 216 206 192 194 190 182 193 202
176 176 175 174 177 168 159 157 149 145 159 205 234 249 249 275 285 278 271 261 260 251 249 253 246 242 267 275 256 212 198 199 208 206 201 202 210 207 185 172 176 217 225
178 180 179 170 162 164 166 153 159 166 173 214 235 240 238 256 268 261 264 267 264 268 257 248 238 238 261 253 230 187 196 207 222 222 215 208 206 208 175 159 170 203 281
150 159 156 148 156 176 166 157 174 180 200 218 223 227 232 236 250 255 251 258 258 260 262 254 238 229 247 249 223 190 186 208 234 249 248 232 218 202 180 173 172 186 238
139 144 147 156 176 178 162 168 183 210 219 215 215 227 240 241 246 257 264 267 281 291 287 276 264 238 240 246 223 198 194 206 218 231 247 250 222 199 192 187 189 202 201
130 136 147 162 180 174 166 183 204 216 211 198 206 237 250 253 262 260 269 263 249 280 292 287 289 269 253 239 228 208 209 209 205 220 229 235 218 201 195 196 201 195 177
143 140 151 159 176 178 174 188 214 205 188 187 209 240 261 265 260 243 249 258 244 237 263 270 268 279 268 254 231 215 216 215 214 225 221 217 206 195 198 206 198 185 169
148 149 149 151 180 199 177 188 203 195 185 196 222 240 255 273 279 251 230 233 237 240 247 256 262 268 270 265 253 242 231 232 236 245 226 209 187 180 191 195 192 190 184
169 161 156 164 180 179 177 195 195 181 185 200 217 234 245 250 266 259 236 232 238 221 219 230 228 232 251 248 230 220 220 212 206 159 94 77 86 109 138 200 216 200 181
166 160 159 170 185 180 193 226 213 177 175 201 218 222 232 243 250 262 293 286 253 249 236 229 226 237 239 237 228 225 218 202 171 145 147 178 193 202 205 206 216 209 204